Location: Unspecified
(29.9680°N, 0.0000°E)
Time: 22:50:47
(UTC+00:00)

A-11 Canister half - Pass Details

Date: 24 June 2019
Orbit: 1526 x 1683 km, 47.3° (Epoch: 19 July)

Event Time Altitude Azimuth Distance (km) Brightness Sun altitude
Rises 08:16:31 0° 307° (NW) 4,690 11.2 39.6°
Reaches altitude 10° 08:20:03 10° 317° (NW) 3,698 10.8 40.4°
Maximum altitude 08:28:13 33° 19° (NNE) 2,350 10.7 42.1°
Drops below altitude 10° 08:36:24 10° 80° (E) 3,712 12.1 43.9°
Sets 08:39:55 0° 90° (E) 4,709 12.3 44.7°
